Time,TemperatureF,DewpointF,PressureIn,WindDirection,WindDirectionDegrees,WindSpeedMPH,WindSpeedGustMPH,Humidity,HourlyPrecipIn,Conditions,Clouds,dailyrainin,SolarRadiationWatts/m^2,SoftwareType,DateUTC
2013-09-10 00:22:00,48.0,47.0,-100.00,NW,304,0.0,2.0,96,0.00,,,0.00,0.000000,,2013-09-10 08:22:00,
2013-09-10 00:32:00,48.0,47.0,-100.00,NW,304,0.0,2.0,96,0.00,,,0.00,0.000000,,2013-09-10 08:32:00,
2013-09-10 00:42:00,48.0,47.0,-100.00,NW,304,0.0,2.0,96,0.00,,,0.00,0.000000,,2013-09-10 08:42:00,
2013-09-10 00:52:00,48.0,47.0,-100.00,NW,304,0.0,2.0,96,0.00,,,0.00,0.000000,,2013-09-10 08:52:00,
2013-09-10 01:21:00,48.0,47.0,-100.00,West,273,0.0,2.0,95,0.00,,,0.00,0.000000,,2013-09-10 09:21:00,
2013-09-10 01:33:00,48.0,47.0,-100.00,West,273,0.0,2.0,95,0.00,,,0.00,0.000000,,2013-09-10 09:33:00,
2013-09-10 01:43:00,48.0,47.0,-100.00,West,273,0.0,2.0,95,0.00,,,0.00,0.000000,,2013-09-10 09:43:00,
2013-09-10 01:54:00,48.0,47.0,-100.00,West,273,0.0,2.0,95,0.00,,,0.00,0.000000,,2013-09-10 09:54:00,
2013-09-10 02:23:00,48.0,47.0,-100.00,NW,316,1.0,2.0,96,0.00,,,-99.99,0.000000,,2013-09-10 10:23:00,
2013-09-10 02:33:00,48.0,47.0,-100.00,NW,316,1.0,2.0,96,0.00,,,-99.99,0.000000,,2013-09-10 10:33:00,
2013-09-10 02:42:00,48.0,47.0,-100.00,NW,316,1.0,2.0,96,0.00,,,-99.99,0.000000,,2013-09-10 10:42:00,
2013-09-10 02:53:00,48.0,47.0,-100.00,NW,316,1.0,2.0,96,0.00,,,-99.99,0.000000,,2013-09-10 10:53:00,
2013-09-10 06:21:00,49.0,47.0,-100.00,East,101,0.0,4.0,93,-99.99,,,0.00,0.000000,,2013-09-10 14:21:00,
2013-09-10 06:32:00,49.0,47.0,-100.00,East,101,0.0,4.0,93,-99.99,,,0.00,0.000000,,2013-09-10 14:32:00,
2013-09-10 06:42:00,49.0,47.0,-100.00,East,101,0.0,4.0,93,-99.99,,,0.00,0.000000,,2013-09-10 14:42:00,
2013-09-10 06:52:00,49.0,47.0,-100.00,East,101,0.0,4.0,93,-99.99,,,0.00,0.000000,,2013-09-10 14:52:00,
2013-09-10 07:22:00,49.0,48.0,-100.00,NNW,333,3.0,5.0,95,0.00,,,0.00,6.000000,,2013-09-10 15:22:00,
2013-09-10 07:34:00,49.0,48.0,-100.00,NNW,333,3.0,5.0,95,0.00,,,0.00,6.000000,,2013-09-10 15:34:00,
2013-09-10 07:43:00,49.0,48.0,-100.00,NNW,333,3.0,5.0,95,0.00,,,0.00,6.000000,,2013-09-10 15:43:00,
2013-09-10 07:54:00,49.0,48.0,-100.00,NNW,333,3.0,5.0,95,0.00,,,0.00,6.000000,,2013-09-10 15:54:00,
2013-09-10 08:23:00,50.0,48.0,-100.00,NW,305,3.0,6.0,93,0.00,,,0.00,41.000000,,2013-09-10 16:23:00,
2013-09-10 08:33:00,50.0,48.0,-100.00,NW,305,3.0,6.0,93,0.00,,,0.00,41.000000,,2013-09-10 16:33:00,
2013-09-10 08:43:00,50.0,48.0,-100.00,NW,305,3.0,6.0,93,0.00,,,0.00,41.000000,,2013-09-10 16:43:00,
2013-09-10 08:53:00,50.0,48.0,-100.00,NW,305,3.0,6.0,93,0.00,,,0.00,41.000000,,2013-09-10 16:53:00,
2013-09-10 09:23:00,53.0,50.0,-100.00,North,11,2.0,4.0,88,0.00,,,0.00,82.000000,,2013-09-10 17:23:00,
2013-09-10 09:33:00,53.0,50.0,-100.00,North,11,2.0,4.0,88,0.00,,,0.00,82.000000,,2013-09-10 17:33:00,
2013-09-10 09:43:00,53.0,50.0,-100.00,North,11,2.0,4.0,88,0.00,,,0.00,82.000000,,2013-09-10 17:43:00,
2013-09-10 09:52:00,53.0,50.0,-100.00,North,11,2.0,4.0,88,0.00,,,0.00,82.000000,,2013-09-10 17:52:00,
2013-09-10 10:21:00,53.0,50.0,-100.00,North,350,3.0,7.0,89,0.00,,,0.00,153.000000,,2013-09-10 18:21:00,
2013-09-10 10:32:00,53.0,50.0,-100.00,North,350,3.0,7.0,89,0.00,,,0.00,153.000000,,2013-09-10 18:32:00,
2013-09-10 10:42:00,53.0,50.0,-100.00,North,350,3.0,7.0,89,0.00,,,0.00,153.000000,,2013-09-10 18:42:00,
2013-09-10 10:52:00,53.0,50.0,-100.00,North,350,3.0,7.0,89,0.00,,,0.00,153.000000,,2013-09-10 18:52:00,
2013-09-10 11:21:00,55.0,51.0,-100.00,North,6,4.0,6.0,86,0.00,,,0.00,223.000000,,2013-09-10 19:21:00,
2013-09-10 11:32:00,55.0,51.0,-100.00,North,6,4.0,6.0,86,0.00,,,0.00,223.000000,,2013-09-10 19:32:00,
2013-09-10 11:42:00,55.0,51.0,-100.00,North,6,4.0,6.0,86,0.00,,,0.00,223.000000,,2013-09-10 19:42:00,
2013-09-10 11:52:00,55.0,51.0,-100.00,North,6,4.0,6.0,86,0.00,,,0.00,223.000000,,2013-09-10 19:52:00,
2013-09-10 12:21:00,56.0,50.0,-100.00,North,353,2.0,5.0,81,0.00,,,0.00,191.000000,,2013-09-10 20:21:00,
2013-09-10 12:32:00,56.0,50.0,-100.00,North,353,2.0,5.0,81,0.00,,,0.00,191.000000,,2013-09-10 20:32:00,
2013-09-10 12:42:00,56.0,50.0,-100.00,North,353,2.0,5.0,81,0.00,,,0.00,191.000000,,2013-09-10 20:42:00,
2013-09-10 12:52:00,56.0,50.0,-100.00,North,353,2.0,5.0,81,0.00,,,0.00,191.000000,,2013-09-10 20:52:00,
2013-09-10 13:44:00,60.0,52.0,-100.00,NE,52,2.0,4.0,74,0.00,,,-99.99,252.000000,,2013-09-10 21:44:00,
2013-09-10 14:24:00,59.0,51.0,-100.00,NNW,345,4.0,6.0,74,-99.99,,,0.00,224.000000,,2013-09-10 22:24:00,
2013-09-10 14:33:00,59.0,51.0,-100.00,NNW,345,4.0,6.0,74,-99.99,,,0.00,224.000000,,2013-09-10 22:33:00,
2013-09-10 14:42:00,59.0,51.0,-100.00,NNW,345,4.0,6.0,74,-99.99,,,0.00,224.000000,,2013-09-10 22:42:00,
2013-09-10 14:54:00,59.0,51.0,-100.00,NNW,345,4.0,6.0,74,-99.99,,,0.00,224.000000,,2013-09-10 22:54:00,
2013-09-10 16:22:00,57.0,50.0,-100.00,North,7,4.0,7.0,77,-99.99,,,0.00,122.000000,,2013-09-11 00:22:00,
2013-09-10 16:32:00,57.0,50.0,-100.00,North,7,4.0,7.0,77,-99.99,,,0.00,122.000000,,2013-09-11 00:32:00,
2013-09-10 16:42:00,57.0,50.0,-100.00,North,7,4.0,7.0,77,-99.99,,,0.00,122.000000,,2013-09-11 00:42:00,
2013-09-10 16:52:00,57.0,50.0,-100.00,North,7,4.0,7.0,77,-99.99,,,0.00,122.000000,,2013-09-11 00:52:00,
2013-09-10 17:21:00,55.0,49.0,-100.00,North,357,3.0,6.0,80,0.00,,,0.00,111.000000,,2013-09-11 01:21:00,
2013-09-10 17:32:00,55.0,49.0,-100.00,North,357,3.0,6.0,80,0.00,,,0.00,111.000000,,2013-09-11 01:32:00,
2013-09-10 17:42:00,55.0,49.0,-100.00,North,357,3.0,6.0,80,0.00,,,0.00,111.000000,,2013-09-11 01:42:00,
2013-09-10 17:53:00,55.0,49.0,-100.00,North,357,3.0,6.0,80,0.00,,,0.00,111.000000,,2013-09-11 01:53:00,
2013-09-10 18:22:00,54.0,49.0,-100.00,NNE,21,2.0,6.0,83,0.00,,,0.00,56.000000,,2013-09-11 02:22:00,
2013-09-10 18:32:00,54.0,49.0,-100.00,NNE,21,2.0,6.0,83,0.00,,,0.00,56.000000,,2013-09-11 02:32:00,
2013-09-10 18:43:00,54.0,49.0,-100.00,NNE,21,2.0,6.0,83,0.00,,,0.00,56.000000,,2013-09-11 02:43:00,
2013-09-10 18:52:00,54.0,49.0,-100.00,NNE,21,2.0,6.0,83,0.00,,,0.00,56.000000,,2013-09-11 02:52:00,
2013-09-10 19:22:00,54.0,50.0,-100.00,WSW,249,2.0,4.0,85,0.00,,,0.00,22.000000,,2013-09-11 03:22:00,
2013-09-10 19:34:00,54.0,50.0,-100.00,WSW,249,2.0,4.0,85,0.00,,,0.00,22.000000,,2013-09-11 03:34:00,
2013-09-10 19:44:00,54.0,50.0,-100.00,WSW,249,2.0,4.0,85,0.00,,,0.00,22.000000,,2013-09-11 03:44:00,
2013-09-10 19:54:00,54.0,50.0,-100.00,WSW,249,2.0,4.0,85,0.00,,,0.00,22.000000,,2013-09-11 03:54:00,
2013-09-10 20:24:00,56.0,50.0,-100.00,SSE,149,2.0,8.0,81,0.00,,,0.00,1.000000,,2013-09-11 04:24:00,
2013-09-10 20:33:00,56.0,50.0,-100.00,SSE,149,2.0,8.0,81,0.00,,,0.00,1.000000,,2013-09-11 04:33:00,
2013-09-10 20:43:00,56.0,50.0,-100.00,SSE,149,2.0,8.0,81,0.00,,,0.00,1.000000,,2013-09-11 04:43:00,
2013-09-10 20:53:00,56.0,50.0,-100.00,SSE,149,2.0,8.0,81,0.00,,,0.00,1.000000,,2013-09-11 04:53:00,
2013-09-10 21:22:00,56.0,50.0,-100.00,South,185,1.0,5.0,80,0.00,,,0.00,0.000000,,2013-09-11 05:22:00,
2013-09-10 21:33:00,56.0,50.0,-100.00,South,185,1.0,5.0,80,0.00,,,0.00,0.000000,,2013-09-11 05:33:00,
2013-09-10 21:42:00,56.0,50.0,-100.00,South,185,1.0,5.0,80,0.00,,,0.00,0.000000,,2013-09-11 05:42:00,
2013-09-10 21:53:00,56.0,50.0,-100.00,South,185,1.0,5.0,80,0.00,,,0.00,0.000000,,2013-09-11 05:53:00,
2013-09-10 22:21:00,56.0,50.0,-100.00,South,181,3.0,5.0,80,0.00,,,0.00,0.000000,,2013-09-11 06:21:00,
2013-09-10 22:32:00,56.0,50.0,-100.00,South,181,3.0,5.0,80,0.00,,,0.00,0.000000,,2013-09-11 06:32:00,
2013-09-10 22:42:00,56.0,50.0,-100.00,South,181,3.0,5.0,80,0.00,,,0.00,0.000000,,2013-09-11 06:42:00,
2013-09-10 22:52:00,56.0,50.0,-100.00,South,181,3.0,5.0,80,0.00,,,0.00,0.000000,,2013-09-11 06:52:00,
2013-09-10 23:23:00,56.0,51.0,-100.00,ESE,122,3.0,6.0,84,0.00,,,0.00,0.000000,,2013-09-11 07:23:00,
2013-09-10 23:32:00,56.0,51.0,-100.00,ESE,122,3.0,6.0,84,0.00,,,0.00,0.000000,,2013-09-11 07:32:00,
2013-09-10 23:42:00,56.0,51.0,-100.00,ESE,122,3.0,6.0,84,0.00,,,0.00,0.000000,,2013-09-11 07:42:00,
2013-09-10 23:52:00,56.0,51.0,-100.00,ESE,122,3.0,6.0,84,0.00,,,0.00,0.000000,,2013-09-11 07:52:00,